588  
ASUS42 KTAE 232016  
RWRTAE  
RWRTAE  
NORTH FLORIDA/SOUTH ALABAMA/SOUTHWEST GEORGIA WEATHER ROUNDUP  
NATIONAL WEATHER SERVICE TALLAHASSEE FLORIDA  
300 PM EST SUN FEB 23 2020  
 
NOTE: "FAIR" INDICATES FEW OR NO CLOUDS BELOW 12,000 FEET WITH NO  
SIGNIFICANT WEATHER AND/OR S TO VISIBILITY
.  
 
!FLZ017-115-028-034-025-232100   
..NORTH FLORIDA
 
 
 
CITY SKY/WX TMP DP RH WIND PRES REMARKS
 
TALL INTL ARPT FAIR 68 38 33 CALM 30.18F  
FSU LOVE BLDG N/A N/A N/A N/A MISG N/A  
APALACHICOLA N/A N/A N/A N/A MISG 30.20F  
PERRY FAIR 70 46 41 W8 30.18F  
CROSS CITY FAIR 73 46 36 SE5 30.16F  
JACKSONVILLE FAIR 69 48 47 E6 30.18F  

 
 
!FLZ112-006-005-002-011-232100   
..FLORIDA PANHANDLE
 
 
 
CITY SKY/WX TMP DP RH WIND PRES REMARKS
 
MARIANNA NOT AVBL  
BONIFAY FAIR 66 35 31 VRB3 30.20F  
PANAMA CITY NW FAIR 65 51 60 S12 30.19F  
TYNDALL AFB FAIR 64 51 63 SW7 30.19  
TYND DRONE APT NOT AVBL  
DE FUNIAK SPR FAIR 64 33 32 CALM 30.20F  
EGLIN AFB SUNNY 62 45 52 VRB3 30.19  
DESTIN FAIR 61 51 70 SE8 30.20F  
HURLBURT MOSUNNY 63 51 65 S6 30.19  
CRESTVIEW FAIR 65 31 28 VRB3 30.22F  
PENSACOLA FAIR 63 48 58 VRB7 30.21F  

 
 
!ALZ063-066-232100   
..SOUTH ALABAMA
 
 
 
CITY SKY/WX TMP DP RH WIND PRES REMARKS
 
DOTHAN FAIR 63 34 33 NW7 30.24F  
OZARK CAIRNS PTSUNNY 62 31 31 CALM 30.20  
FT RUCKER HELI PTSUNNY 63 32 30 SW6 30.21F  
RUCKER HELI 3 FAIR 61 29 29 CALM 30.20F  
RUCKER HELI 2 FAIR 63 32 32 CALM 30.19F  
FLORALA APT FAIR 65 30 27 VRB3 30.22F  
ANDALUSIA FAIR 65 26 23 VRB3 30.21  
TROY FAIR 60 24 25 CALM 30.22F  
EUFALA NOT AVBL  
MOBILE FAIR 65 38 36 W3 30.18F  

 
 
!GAZ120>161-232100   
..SOUTHWEST AND SOUTH CENTRAL GEORGIA
 
 
 
CITY SKY/WX TMP DP RH WIND PRES REMARKS
 
THOMASVILLE FAIR 64 36 34 CALM 30.20S  
BAINBRIDGE FAIR 64 38 37 N6 30.20F  
MOODY AFB FAIR 67 42 40 S10 30.16  
VALDOSTA FAIR 68 43 40 SE6 30.17F  
MOULTRIE FAIR 63 34 34 SW7 30.20F  
BLAKELY FAIR 59 30 33 W5 30.22S  
ALBANY FAIR 63 34 33 VRB5 30.23F  
TIFTON FAIR 63 38 39 CALM 30.19  
FITZGERALD FAIR 65 42 42 S9 30.22S  
CORDELE N/A 61 25 25 CALM 30.22F  
AMERICUS FAIR 63 30 29 S3 30.23S  
HOMERVILLE FAIR 66 43 42 S8 30.18F  

 
 
!GMZ750-755-770-775-232100   
..COASTAL AND BUOY OBS
 
 
 
STATION/POSITION TIME TEMP WIND PRES VSBY WAVE
 
AIR SEA DIR/SP/G HT/PER  
(UTC) (F) (DEG/KT/KT) (MB) (MI) (FT/S)  
KEATON BEACH 2000 60 290/ 6/ 7 1022.4F  
CEDAR KEY 2000 67 260/ 4/ 5 1021.8F  
C TOWER 2000 59 70/ 7/ 8 1022.6F  
APALACHICOLA BUO 2000 62 80/ 4/ 6 1022.6  
PANAMA CITY BUOY 2000 71 120/ 12/ 14 1021.3  
MOBILE BUOY 2000 66 90/ 2/ 4 1022.1  
ORANGE BCH AL BU 2000 62 66 90/ 6/ 8 1022.8  

 
 
 
CLICK HERE TO GO TO PREVIOUS BULLETINS.

The Nexlab FL Page
The Nexlab GA Page
The Nexlab AL Page Main Text Page